Selinsgrove, PA

10:18 AM EST on December 09, 2019 (GMT -0500)
Penn Valley

Weather History for KSEG - October, 2019

Change the Weather History Date:

Tuesday, October 15, 2019

  Actual Average (KIPT) Record (KIPT)
Temperature  
Mean Temperature 49 °F -  
Max Temperature 64 °F 60 °F 82 °F (1975)
Min Temperature 35 °F 39 °F 28 °F (1937)
Degree Days  
Heating Degree Days 16    
Moisture  
Dew Point 39 °F    
Average Humidity 82    
Maximum Humidity 100    
Minimum Humidity 40    
Precipitation  
Precipitation 0.00 in - - ()
Sea Level Pressure  
Sea Level Pressure 30.14 in    
Wind  
Wind Speed 1 mph (SSE)    
Max Wind Speed 9 mph    
Max Gust Speed -    
Visibility 8 miles    
Events Fog    
Averages and records for this station are not official NWS values.
T = Trace of Precipitation, MM = Missing Value Source: NWS Daily Summary

Daily Weather History Graph

Daily Weather History Graph

Search for Another Location

Airport or City:

Astronomy

Oct. 15, 2019 Rise Set
Actual Time 7:18 AM EDT 6:27 PM EDT
Civil Twilight 6:50 AM EDT 6:54 PM EDT
Nautical Twilight 6:19 AM EDT 7:26 PM EDT
Astronomical Twilight 5:47 AM EDT 7:58 PM EDT
Moon 7:45 PM EDT (10/15) 8:47 AM EDT (10/15)
Length of Visible Light 12h 04m
Length of Day
11h 08m
Full, 97% of the Moon is Illuminated
Oct 15
Full
Oct 21
Last Quarter
Oct 27
New
Nov 4
First Quarter
Nov 12
Full

Hourly Weather History & Observations

Time (EDT) Temp. Windchill Dew Point Humidity Pressure Visibility Wind Dir Wind Speed Gust Speed Precip Events Conditions
12:53 AM 43.0 °F 41.3 °F 39.0 °F 86% 30.12 in 10.0 mi North 3.5 mph - N/A   Clear
1:53 AM 41.0 °F - 39.0 °F 93% 30.14 in 10.0 mi Calm Calm - N/A   Clear
2:53 AM 39.9 °F - 39.0 °F 97% 30.14 in 10.0 mi Calm Calm - N/A   Clear
3:53 AM 37.0 °F - 36.0 °F 96% 30.15 in 10.0 mi Calm Calm - N/A   Clear
4:53 AM 37.0 °F - 36.0 °F 96% 30.16 in 9.0 mi Calm Calm - N/A   Clear
5:53 AM 36.0 °F - 35.1 °F 97% 30.18 in 8.0 mi Calm Calm - N/A   Clear
6:53 AM 35.1 °F - 34.0 °F 96% 30.20 in 7.0 mi Calm Calm - N/A   Clear
7:16 AM 36.0 °F - 34.0 °F 93% 30.19 in 7.0 mi Calm Calm - N/A   Scattered Clouds
7:53 AM 37.0 °F - 36.0 °F 96% 30.21 in 7.0 mi Calm Calm - N/A   Clear
8:01 AM 37.9 °F - 37.0 °F 97% 30.21 in 8.0 mi Calm Calm - N/A   Scattered Clouds
8:44 AM 39.9 °F - 39.0 °F 97% 30.21 in 1.5 mi Calm Calm - N/A   Mostly Cloudy
8:46 AM 39.9 °F - 39.0 °F 97% 30.21 in 0.5 mi Calm Calm - N/A Fog Fog
8:53 AM 39.9 °F - 39.9 °F 100% 30.22 in 0.2 mi Calm Calm - N/A Fog Fog
9:28 AM 42.1 °F - 42.1 °F 100% 30.22 in 1.2 mi Calm Calm - N/A   Overcast
9:31 AM 42.1 °F - 42.1 °F 100% 30.21 in 3.0 mi Calm Calm - N/A   Mostly Cloudy
9:48 AM 44.6 °F - 42.8 °F 93% 30.22 in 10.0 mi Calm Calm - N/A   Partly Cloudy
9:53 AM 45.0 °F - 43.0 °F 93% 30.22 in 10.0 mi Calm Calm - N/A   Partly Cloudy
10:53 AM 53.1 °F - 44.1 °F 71% 30.21 in 10.0 mi Variable 3.5 mph - N/A   Clear
11:53 AM 57.0 °F - 39.9 °F 53% 30.19 in 10.0 mi SE 4.6 mph - N/A   Clear
12:53 PM 59.0 °F - 39.0 °F 48% 30.17 in 10.0 mi SW 4.6 mph - N/A   Clear
1:53 PM 61.0 °F - 37.9 °F 42% 30.14 in 10.0 mi Variable 3.5 mph - N/A   Clear
2:53 PM 63.0 °F - 39.0 °F 41% 30.11 in 10.0 mi SE 9.2 mph - N/A   Clear
3:53 PM 63.0 °F - 37.9 °F 40% 30.09 in 10.0 mi Variable 3.5 mph - N/A   Clear
4:53 PM 63.0 °F - 39.9 °F 43% 30.06 in 10.0 mi SSE 8.1 mph - N/A   Clear
5:53 PM 61.0 °F - 39.9 °F 46% 30.05 in 10.0 mi South 5.8 mph - N/A   Clear
6:53 PM 52.0 °F - 43.0 °F 71% 30.05 in 10.0 mi Calm Calm - N/A   Clear
7:53 PM 46.9 °F - 43.0 °F 86% 30.04 in 10.0 mi Calm Calm - N/A   Clear
8:53 PM 42.1 °F - 39.9 °F 92% 30.04 in 10.0 mi Calm Calm - N/A   Clear
9:53 PM 44.1 °F 42.5 °F 41.0 °F 89% 30.02 in 10.0 mi Variable 3.5 mph - N/A   Clear
10:53 PM 41.0 °F - 39.9 °F 96% 30.00 in 10.0 mi Calm Calm - N/A   Clear
11:53 PM 41.0 °F - 39.0 °F 93% 30.01 in 10.0 mi Calm Calm - N/A   Clear